DW8219 Weather Reports


Display with metric or nautical units.
time (UTC)temp
F
wind
direction
speed
MPH
gust
MPH
rain 1hr
in
rain 24hr
in
rain mn
in
humidity
%
barometer
mb
20260902110405 64 40 0.0 0.0 0.00 0.44 0.01 95 1018.4
20260902105905 64 20 0.0 0.0 0.00 0.44 0.01 95 1018.4
20260902105404 64 21 0.0 0.0 0.00 0.44 0.01 95 1018.5
20260902104906 64 63 0.0 0.0 0.00 0.44 0.01 95 1018.5
20260902104405 64 36 0.0 0.0 0.00 0.44 0.01 95 1018.5
20260902103904 64 88 0.0 0.0 0.00 0.44 0.01 95 1018.4
20260902103406 64 93 0.0 0.0 0.00 0.44 0.01 95 1018.4
20260902102904 64 31 0.0 0.0 0.00 0.44 0.01 95 1018.3
20260902101905 64 59 0.0 0.0 0.00 0.44 0.01 95 1018.2
20260902101405 64 14 0.0 0.0 0.00 0.44 0.01 95 1018.2
20260902100405 64 56 0.0 0.0 0.00 0.44 0.01 95 1017.9
20260902095906 64 54 0.0 0.0 0.00 0.44 0.01 95 1017.9
20260902095404 64 68 0.0 0.0 0.00 0.44 0.01 95 1018.0
20260902094906 64 98 0.0 0.0 0.00 0.44 0.01 95 1018.0
20260902093905 64 24 0.0 0.0 0.00 0.44 0.01 95 1017.8
20260902093405 64 51 0.0 0.0 0.00 0.44 0.01 95 1017.8
20260902092904 64 53 0.0 0.0 0.00 0.44 0.01 95 1017.8
20260902091904 64 7 0.0 0.0 0.01 0.44 0.01 95 1017.8
20260902091404 64 42 0.0 0.0 0.01 0.44 0.01 95 1017.8
20260902090904 64 94 0.0 0.0 0.01 0.44 0.01 95 1017.9
20260902085904 64 10 0.0 0.0 0.01 0.44 0.01 95 1017.7
20260902085404 64 42 0.0 0.0 0.01 0.44 0.01 95 1017.7
20260902084903 64 37 0.0 0.0 0.01 0.44 0.01 95 1017.7
20260902084406 64 72 0.0 0.0 0.01 0.44 0.01 95 1017.7
20260902083905 64 72 0.0 0.0 0.01 0.44 0.01 95 1017.7
20260902082904 64 54 0.0 0.0 0.01 0.44 0.01 95 1017.6
20260902082403 64 55 0.0 0.0 0.00 0.43 0.00 95 1017.6
20260902081904 64 55 0.0 0.0 0.00 0.43 0.00 95 1017.5
20260902081405 64 55 0.0 0.0 0.00 0.43 0.00 95 1017.5
20260902080904 64 55 0.0 0.0 0.00 0.43 0.00 95 1017.4
20260902080404 64 54 0.0 0.0 0.00 0.43 0.00 95 1017.4
20260902075904 64 50 0.0 0.0 0.00 0.43 0.00 95 1017.4
20260902075404 64 64 0.0 0.0 0.00 0.43 0.00 95 1017.3
20260902074903 64 66 0.0 0.0 0.00 0.44 0.00 95 1017.4
20260902074406 64 66 0.0 0.0 0.00 0.44 0.00 95 1017.3
20260902073904 64 66 0.0 0.0 0.00 0.44 0.00 95 1017.1
20260902073404 64 66 0.0 0.0 0.00 0.44 0.00 95 1017.1
20260902072404 64 67 0.0 0.0 0.00 0.44 0.00 95 1016.7
20260902071404 64 74 0.0 0.0 0.00 0.44 0.00 95 1016.6
20260902070905 64 64 0.0 0.0 0.00 0.44 0.00 95 1016.7
20260902070404 64 104 0.0 1.0 0.00 0.44 0.00 94 1016.7
20260902065904 64 43 0.0 0.0 0.00 0.44 0.00 95 1016.7
20260902065404 65 6 0.0 0.0 0.00 0.44 0.00 95 1016.7
20260902064905 65 10 0.0 0.0 0.00 0.44 0.00 95 1016.8
20260902064405 65 33 0.0 0.0 0.00 0.44 0.00 94 1016.8
20260902063904 65 36 0.0 0.0 0.00 0.44 0.00 94 1016.9
20260902063405 65 22 0.0 0.0 0.00 0.44 0.00 94 1016.9
20260902062904 65 39 0.0 0.0 0.00 0.44 0.00 94 1017.0
20260902062404 65 39 0.0 0.0 0.00 0.44 0.00 94 1017.0
20260902061905 65 20 0.0 0.0 0.00 0.44 0.00 94 1017.2
20260902061405 65 67 0.0 0.0 0.00 0.44 0.00 94 1017.3
20260902060905 65 35 0.0 0.0 0.00 0.44 0.00 94 1017.3
20260902055904 65 18 0.0 0.0 0.00 0.44 0.00 94 1017.3
20260902055404 65 12 0.0 0.0 0.00 0.44 0.00 94 1017.2
20260902054904 65 6 0.0 0.0 0.00 0.44 0.00 94 1017.1
20260902054405 65 5 0.0 0.0 0.00 0.44 0.00 94 1017.0
20260902053905 65 25 0.0 0.0 0.00 0.44 0.00 94 1017.2
20260902052905 66 26 0.0 0.0 0.00 0.44 0.00 93 1017.2
20260902052405 65 19 0.0 0.0 0.00 0.44 0.00 93 1017.1
20260902051904 66 23 0.0 0.0 0.00 0.44 0.00 93 1017.3
20260902051404 66 39 0.0 0.0 0.00 0.44 0.00 93 1017.3
20260902050905 66 51 0.0 0.0 0.00 0.45 0.00 93 1017.3
20260902050405 66 60 0.0 0.0 0.00 0.45 0.00 93 1017.2
20260902045406 66 50 0.0 0.0 0.00 0.46 0.00 93 1017.0
20260902044905 66 50 1.0 7.0 0.00 0.46 0.00 93 1016.9
20260902044405 66 57 1.0 7.0 0.00 0.47 0.00 92 1016.8
20260902043906 66 55 1.0 7.0 0.00 0.49 0.00 92 1016.7
20260902043404 66 57 1.0 3.0 0.00 0.53 0.00 92 1016.9
20260902042905 66 48 0.0 0.0 0.00 0.55 0.00 92 1016.9
20260902042404 66 64 0.0 0.0 0.00 0.55 0.00 92 1017.0
20260902041905 66 80 1.0 5.0 0.00 0.55 0.00 92 1017.0
20260902041405 66 43 0.0 1.0 0.00 0.56 0.00 92 1017.0
20260902040904 66 25 2.0 5.0 0.00 0.56 0.00 92 1017.0
20260902035905 66 85 1.0 3.0 0.00 0.56 0.56 92 1016.7
20260902035405 66 77 0.0 1.0 0.00 0.56 0.56 92 1016.6
20260902034905 66 10 0.0 6.0 0.00 0.56 0.56 92 1016.5
20260902034405 66 36 0.0 0.0 0.00 0.56 0.56 92 1016.3
20260902033905 66 67 0.0 1.0 0.00 0.56 0.56 92 1016.2
20260902033405 66 64 2.0 6.0 0.00 0.56 0.56 92 1016.3
20260902032905 66 44 0.0 0.0 0.00 0.56 0.56 92 1016.2
20260902032403 66 105 1.0 3.0 0.00 0.56 0.56 92 1016.1
20260902031904 66 89 1.0 6.0 0.00 0.56 0.56 92 1015.8
20260902031404 66 68 1.0 10.0 0.00 0.56 0.56 92 1015.9
20260902030904 66 38 0.0 3.0 0.00 0.56 0.56 91 1015.9
20260902030404 66 67 0.0 5.0 0.00 0.56 0.56 91 1015.9
20260902024904 66 82 0.0 10.0 0.00 0.56 0.56 91 1016.0
20260902024404 66 78 1.0 7.0 0.00 0.56 0.56 91 1016.0
20260902023404 66 71 1.0 8.0 0.00 0.56 0.56 91 1015.8
20260902022403 66 65 3.0 12.0 0.00 0.56 0.56 91 1015.5
20260902021904 66 64 2.0 9.0 0.00 0.56 0.56 91 1015.3
20260902020904 66 67 3.0 10.0 0.00 0.56 0.56 92 1015.2
20260902020404 67 55 3.0 8.0 0.00 0.56 0.56 92 1015.2
20260902015904 67 58 1.0 12.0 0.00 0.56 0.56 92 1015.0
20260902015404 67 57 1.0 9.0 0.00 0.56 0.56 92 1014.9
20260902014904 67 52 1.0 3.0 0.00 0.56 0.56 92 1015.2
20260902014405 67 69 2.0 10.0 0.00 0.56 0.56 92 1015.0
20260902013904 67 67 1.0 7.0 0.00 0.56 0.56 92 1014.9
20260902012904 67 65 1.0 3.0 0.00 0.56 0.56 92 1014.7
20260902012404 67 51 1.0 3.0 0.00 0.56 0.56 92 1014.6
20260902011905 67 45 2.0 12.0 0.00 0.56 0.56 92 1014.4
20260902011405 68 53 3.0 12.0 0.00 0.56 0.56 92 1014.3
20260902010904 68 73 2.0 9.0 0.00 0.56 0.56 93 1014.2
20260902010404 68 64 2.0 8.0 0.00 0.56 0.56 93 1014.3
20260902005905 68 52 3.0 14.0 0.00 0.56 0.56 92 1014.1
20260902005404 68 85 2.0 8.0 0.00 0.56 0.56 93 1014.0
20260902003905 69 91 3.0 10.0 0.00 0.56 0.56 93 1013.8
20260902003404 69 71 2.0 12.0 0.01 0.57 0.56 93 1013.6
20260902002904 69 83 3.0 10.0 0.03 0.57 0.56 93 1013.8
20260902002405 69 64 2.0 8.0 0.08 0.57 0.56 93 1013.8
20260902001905 70 55 2.0 9.0 0.10 0.57 0.56 93 1013.9
20260902001404 70 92 5.0 12.0 0.17 0.57 0.56 93 1013.7
20260902000904 70 104 2.0 8.0 0.18 0.57 0.56 93 1013.5
20260902000406 71 92 1.0 9.0 0.18 0.57 0.56 93 1013.6
20260901235905 71 81 3.0 10.0 0.19 0.57 0.56 93 1013.5
20260901235404 71 68 2.0 12.0 0.20 0.57 0.56 93 1013.5
20260901234405 72 83 2.0 9.0 0.20 0.57 0.56 93 1013.5
20260901233905 72 78 2.0 6.0 0.20 0.57 0.56 93 1013.6
20260901233404 73 69 4.0 10.0 0.22 0.56 0.55 93 1013.4
20260901232904 73 74 3.0 9.0 0.22 0.54 0.53 93 1013.2
20260901232404 73 87 2.0 7.0 0.17 0.49 0.48 93 1013.2
20260901231904 74 75 3.0 9.0 0.15 0.47 0.46 92 1013.5
20260901230904 74 34 1.0 5.0 0.07 0.39 0.38 92 1013.6
20260901230406 74 345 1.0 3.0 0.07 0.39 0.38 92 1013.0
20260901225904 75 48 1.0 8.0 0.06 0.38 0.37 91 1012.6
20260901225405 75 85 3.0 8.0 0.05 0.37 0.36 91 1012.7
20260901224404 75 107 1.0 5.0 0.05 0.37 0.36 91 1012.7
20260901223405 76 112 1.0 6.0 0.05 0.34 0.33 90 1012.5
20260901222905 76 103 1.0 3.0 0.03 0.32 0.31 90 1012.5
20260901222404 76 99 3.0 7.0 0.03 0.32 0.31 90 1012.4
20260901221904 76 107 3.0 8.0 0.03 0.32 0.31 90 1012.3
20260901221405 77 82 1.0 3.0 0.03 0.32 0.31 90 1012.2
20260901220905 77 98 1.0 3.0 0.03 0.32 0.31 90 1012.2
20260901215904 77 74 0.0 0.0 0.03 0.32 0.31 90 1012.3
20260901215405 77 74 1.0 3.0 0.03 0.32 0.31 89 1012.4
20260901214906 77 74 1.0 7.0 0.03 0.32 0.31 89 1012.3
20260901213905 78 87 1.0 3.0 0.02 0.31 0.30 87 1012.4
20260901213405 78 98 2.0 7.0 0.00 0.29 0.28 85 1012.3
20260901212904 79 97 2.0 8.0 0.00 0.29 0.28 84 1012.3
20260901211904 80 94 1.0 8.0 0.00 0.29 0.28 83 1012.4
20260901211405 79 52 0.0 3.0 0.00 0.29 0.28 83 1012.4
20260901210904 80 30 1.0 7.0 0.00 0.29 0.28 83 1012.3
20260901210405 80 44 0.0 3.0 0.00 0.29 0.28 84 1012.2
20260901205904 80 123 1.0 6.0 0.00 0.29 0.28 83 1012.2
20260901205404 80 103 3.0 6.0 0.00 0.29 0.28 84 1012.2
20260901204905 79 44 0.0 3.0 0.00 0.29 0.28 84 1012.3
20260901204403 79 38 0.0 2.0 0.00 0.29 0.28 84 1012.2
20260901203904 80 54 1.0 3.0 0.00 0.29 0.28 83 1012.2
20260901202904 80 105 0.0 1.0 0.00 0.29 0.28 83 1012.4
20260901202403 80 101 0.0 2.0 0.00 0.29 0.28 83 1012.4
20260901201904 80 102 0.0 3.0 0.00 0.29 0.28 83 1012.3
20260901201403 80 105 0.0 0.0 0.00 0.29 0.28 83 1012.3
20260901200904 80 104 0.0 3.0 0.00 0.29 0.28 84 1012.2
20260901200404 80 107 0.0 0.0 0.00 0.29 0.28 83 1012.3
20260901195904 80 107 1.0 3.0 0.00 0.29 0.28 83 1012.3
20260901195404 80 112 3.0 7.0 0.00 0.29 0.28 83 1012.3
20260901194404 81 191 0.0 0.0 0.00 0.29 0.28 83 1012.4
20260901193404 80 250 0.0 0.0 0.00 0.29 0.28 84 1012.5
20260901192904 80 263 0.0 0.0 0.00 0.29 0.28 87 1012.5
20260901192404 79 263 0.0 0.0 0.00 0.29 0.28 86 1012.6
20260901191904 79 263 0.0 0.0 0.00 0.29 0.28 86 1012.7
20260901191404 78 263 0.0 0.0 0.00 0.29 0.28 85 1012.7
20260901190904 79 263 0.0 0.0 0.00 0.29 0.28 86 1012.7
20260901190404 79 263 0.0 0.0 0.00 0.29 0.28 86 1012.7
20260901185405 79 263 0.0 0.0 0.00 0.29 0.28 86 1012.7
20260901184404 79 263 0.0 0.0 0.00 0.29 0.28 85 1012.5
20260901183404 79 259 0.0 0.0 0.00 0.29 0.28 83 1012.6
20260901182904 79 259 0.0 0.0 0.00 0.29 0.28 86 1012.6
20260901182404 78 181 0.0 0.0 0.01 0.29 0.28 84 1012.7
20260901181404 80 232 0.0 0.0 0.02 0.29 0.28 88 1012.8
20260901180904 78 225 0.0 0.0 0.03 0.29 0.28 90 1012.8
20260901180405 78 225 0.0 0.0 0.03 0.29 0.28 90 1012.7
20260901175905 77 223 0.0 0.0 0.03 0.29 0.28 88 1012.7
20260901175404 78 236 0.0 0.0 0.03 0.29 0.28 91 1012.6
20260901174405 78 207 0.0 0.0 0.03 0.29 0.28 94 1012.6
20260901173905 76 207 0.0 0.0 0.03 0.29 0.28 93 1012.5
20260901173404 76 211 1.0 6.0 0.03 0.29 0.28 94 1012.4
20260901172905 75 205 1.0 8.0 0.03 0.29 0.28 95 1012.4
20260901172404 74 182 2.0 6.0 0.02 0.28 0.27 94 1012.6
20260901171905 74 181 1.0 5.0 0.02 0.28 0.27 94 1013.1
20260901170904 74 221 0.0 0.0 0.00 0.26 0.25 94 1013.5
20260901170405 74 221 0.0 0.0 0.00 0.26 0.25 94 1013.6
20260901165904 74 221 0.0 3.0 0.00 0.26 0.25 94 1013.6
20260901165405 74 227 1.0 5.0 0.00 0.26 0.25 94 1013.7
20260901164905 74 227 1.0 5.0 0.01 0.26 0.25 94 1013.6
20260901164405 74 228 2.0 7.0 0.01 0.26 0.25 94 1013.4
20260901163906 74 204 2.0 8.0 0.01 0.26 0.25 94 1013.4
20260901163404 74 205 5.0 12.0 0.01 0.26 0.25 94 1013.3
20260901162904 74 178 5.0 12.0 0.02 0.26 0.25 94 1013.1
20260901162405 73 155 3.0 8.0 0.03 0.26 0.25 94 1013.1
20260901161905 73 174 1.0 6.0 0.04 0.26 0.25 95 1013.2
20260901161404 73 165 2.0 6.0 0.05 0.26 0.25 94 1013.5
20260901160904 73 136 1.0 5.0 0.07 0.26 0.25 94 1013.7
20260901160405 73 185 0.0 1.0 0.08 0.26 0.25 94 1013.8
20260901155905 73 188 1.0 3.0 0.08 0.26 0.25 94 1014.0
20260901155405 72 191 1.0 5.0 0.09 0.26 0.25 94 1014.1
20260901154905 72 154 1.0 3.0 0.09 0.25 0.24 94 1014.1
20260901154405 72 237 0.0 0.0 0.09 0.25 0.24 94 1014.5
20260901153905 72 255 0.0 0.0 0.09 0.25 0.24 94 1014.7
20260901153405 72 256 0.0 0.0 0.09 0.25 0.24 94 1014.8
20260901152905 72 255 0.0 0.0 0.08 0.24 0.23 94 1014.8
20260901152404 72 255 0.0 0.0 0.07 0.23 0.22 94 1014.9
20260901151404 72 255 0.0 0.0 0.05 0.21 0.20 94 1014.6
20260901150904 72 255 0.0 0.0 0.03 0.19 0.18 93 1014.6
20260901150403 72 255 0.0 0.0 0.02 0.18 0.17 93 1014.7
20260901145904 72 255 0.0 0.0 0.02 0.18 0.17 93 1014.8
20260901145404 72 255 0.0 0.0 0.01 0.17 0.16 93 1014.8
20260901144904 73 255 0.0 0.0 0.00 0.16 0.15 93 1014.8
20260901144403 73 255 0.0 0.0 0.00 0.16 0.15 93 1014.8
20260901143904 73 255 0.0 0.0 0.00 0.16 0.15 93 1014.7
20260901143404 73 255 0.0 0.0 0.00 0.16 0.15 94 1014.7
20260901142904 73 255 0.0 0.0 0.00 0.16 0.15 93 1014.6
20260901141903 73 255 0.0 0.0 0.00 0.16 0.15 93 1014.5
20260901141404 73 255 0.0 0.0 0.00 0.16 0.15 93 1014.4
20260901140904 73 255 0.0 0.0 0.00 0.16 0.15 93 1014.4
20260901140405 73 255 0.0 0.0 0.00 0.16 0.15 94 1014.4
20260901135906 73 255 0.0 0.0 0.00 0.16 0.15 93 1014.3
20260901135404 73 255 0.0 0.0 0.00 0.16 0.15 94 1014.1
20260901134904 72 255 0.0 0.0 0.00 0.16 0.15 94 1014.1
20260901134404 72 255 0.0 0.0 0.00 0.16 0.15 94 1014.2
20260901133906 72 255 0.0 0.0 0.00 0.16 0.15 94 1014.3
20260901133404 72 255 0.0 0.0 0.00 0.16 0.15 94 1014.4
20260901132904 72 255 0.0 0.0 0.00 0.16 0.15 94 1014.4
20260901132404 72 255 0.0 0.0 0.00 0.16 0.15 94 1014.3
20260901131904 72 255 0.0 0.0 0.00 0.16 0.15 94 1014.4
20260901130905 71 258 0.0 0.0 0.00 0.16 0.15 94 1014.6
20260901130404 71 258 0.0 0.0 0.00 0.16 0.15 95 1014.5
20260901125904 71 258 0.0 3.0 0.00 0.16 0.15 95 1014.4
20260901125404 71 232 0.0 3.0 0.00 0.16 0.15 94 1014.2
20260901124904 71 227 0.0 2.0 0.00 0.16 0.15 94 1014.3
20260901124405 71 230 0.0 0.0 0.00 0.16 0.15 95 1014.4
20260901123904 71 230 1.0 3.0 0.01 0.16 0.15 94 1014.4
20260901123404 71 224 0.0 3.0 0.01 0.16 0.15 95 1014.3
20260901122904 71 178 1.0 3.0 0.02 0.16 0.15 95 1014.1
20260901122404 71 173 2.0 5.0 0.02 0.16 0.15 95 1014.3
20260901121904 71 178 1.0 5.0 0.02 0.16 0.15 95 1014.3
20260901121404 71 174 0.0 5.0 0.02 0.16 0.15 95 1014.1
20260901120404 71 211 0.0 0.0 0.02 0.16 0.15 95 1014.1
20260901115904 71 211 0.0 0.0 0.02 0.16 0.15 95 1014.3
20260901115404 70 233 0.0 0.0 0.02 0.16 0.15 95 1014.3
20260901114906 70 236 0.0 0.0 0.02 0.16 0.15 95 1014.4
20260901114404 70 236 0.0 0.0 0.02 0.16 0.15 95 1014.4
20260901113905 70 236 0.0 0.0 0.01 0.15 0.14 95 1014.8
20260901112904 70 236 0.0 2.0 0.00 0.14 0.13 95 1014.5
20260901112405 70 341 0.0 0.0 0.00 0.14 0.13 95 1014.5
20260901111905 70 340 0.0 0.0 0.00 0.14 0.13 95 1014.6
20260901111404 70 340 0.0 0.0 0.00 0.14 0.13 95 1014.7
20260901110904 70 340 0.0 0.0 0.00 0.14 0.13 95 1014.8